| time (UTC) | temp F | wind direction | speed MPH | gust MPH | rain 1hr in | rain 24hr in | rain mn in | humidity % | barometer mb |
| 20260509000509 | 60 | 225 | 2.0 | 9.0 | 0.00 | 0.00 | 0.00 | 63 | 1007.8 |
| 20260509000018 | 60 | 242 | 4.0 | 9.0 | 0.00 | 0.00 | 0.00 | 61 | 1007.8 |
| 20260508235506 | 60 | 194 | 3.0 | 9.0 | 0.00 | 0.00 | 0.00 | 59 | 1007.7 |
| 20260508235006 | 60 | 210 | 4.0 | 9.0 | 0.00 | 0.00 | 0.00 | 58 | 1007.8 |
| 20260508234519 | 60 | 246 | 4.0 | 9.0 | 0.00 | 0.00 | 0.00 | 57 | 1007.8 |
| 20260508234008 | 60 | 260 | 6.0 | 9.0 | 0.00 | 0.00 | 0.00 | 57 | 1007.9 |
| 20260508233505 | 60 | 219 | 2.0 | 7.0 | 0.00 | 0.00 | 0.00 | 59 | 1007.9 |
| 20260508233025 | 60 | 192 | 1.0 | 9.0 | 0.00 | 0.00 | 0.00 | 59 | 1007.9 |
| 20260508232508 | 60 | 247 | 3.0 | 9.0 | 0.00 | 0.00 | 0.00 | 58 | 1007.9 |
| 20260508232010 | 60 | 234 | 3.0 | 9.0 | 0.00 | 0.00 | 0.00 | 59 | 1007.9 |
| 20260508231526 | 61 | 231 | 4.0 | 10.0 | 0.00 | 0.00 | 0.00 | 59 | 1007.9 |
| 20260508231004 | 61 | 235 | 5.0 | 10.0 | 0.00 | 0.00 | 0.00 | 58 | 1007.9 |
| 20260508230502 | 61 | 288 | 4.0 | 11.0 | 0.00 | 0.00 | 0.00 | 57 | 1007.8 |
| 20260508230012 | 62 | 266 | 4.0 | 11.0 | 0.00 | 0.00 | 0.00 | 57 | 1007.8 |
| 20260508225502 | 62 | 211 | 3.0 | 10.0 | 0.00 | 0.00 | 0.00 | 56 | 1007.8 |
| 20260508225008 | 61 | 250 | 5.0 | 10.0 | 0.00 | 0.00 | 0.00 | 57 | 1007.8 |
| 20260508224527 | 61 | 259 | 4.0 | 10.0 | 0.00 | 0.00 | 0.00 | 57 | 1007.8 |
| 20260508224005 | 62 | 216 | 5.0 | 12.0 | 0.00 | 0.00 | 0.00 | 56 | 1007.8 |
| 20260508223505 | 62 | 211 | 6.0 | 12.0 | 0.00 | 0.00 | 0.00 | 56 | 1007.8 |
| 20260508223035 | 62 | 205 | 3.0 | 11.0 | 0.00 | 0.00 | 0.00 | 57 | 1007.8 |
| 20260508222507 | 62 | 182 | 5.0 | 11.0 | 0.00 | 0.00 | 0.00 | 57 | 1007.8 |
| 20260508222014 | 63 | 163 | 5.0 | 12.0 | 0.00 | 0.00 | 0.00 | 56 | 1007.8 |
| 20260508221526 | 62 | 217 | 4.0 | 14.0 | 0.00 | 0.00 | 0.00 | 57 | 1007.9 |
| 20260508221010 | 63 | 229 | 7.0 | 14.0 | 0.00 | 0.00 | 0.00 | 54 | 1007.8 |
| 20260508220508 | 63 | 236 | 3.0 | 9.0 | 0.00 | 0.00 | 0.00 | 55 | 1007.8 |
| 20260508220011 | 62 | 203 | 3.0 | 10.0 | 0.00 | 0.00 | 0.00 | 56 | 1007.8 |
| 20260508215503 | 61 | 212 | 4.0 | 10.0 | 0.00 | 0.00 | 0.00 | 54 | 1007.9 |
| 20260508215003 | 62 | 222 | 5.0 | 10.0 | 0.00 | 0.00 | 0.00 | 53 | 1007.9 |
| 20260508214516 | 62 | 247 | 5.0 | 10.0 | 0.00 | 0.00 | 0.00 | 53 | 1007.9 |
| 20260508214008 | 62 | 194 | 3.0 | 10.0 | 0.00 | 0.00 | 0.00 | 55 | 1007.9 |
| 20260508213505 | 61 | 205 | 3.0 | 11.0 | 0.00 | 0.00 | 0.00 | 55 | 1008.0 |
| 20260508213022 | 61 | 195 | 3.0 | 11.0 | 0.00 | 0.00 | 0.00 | 53 | 1008.0 |
| 20260508212506 | 61 | 270 | 5.0 | 9.0 | 0.00 | 0.00 | 0.00 | 54 | 1008.1 |
| 20260508212009 | 61 | 252 | 4.0 | 13.0 | 0.00 | 0.00 | 0.00 | 54 | 1008.1 |
| 20260508211525 | 61 | 276 | 5.0 | 15.0 | 0.00 | 0.00 | 0.00 | 53 | 1008.1 |
| 20260508211010 | 61 | 282 | 5.0 | 15.0 | 0.00 | 0.00 | 0.00 | 52 | 1008.1 |
| 20260508210511 | 61 | 245 | 4.0 | 13.0 | 0.00 | 0.00 | 0.00 | 51 | 1008.1 |
| 20260508210026 | 62 | 257 | 4.0 | 13.0 | 0.00 | 0.00 | 0.00 | 49 | 1008.1 |
| 20260508205509 | 62 | 250 | 6.0 | 13.0 | 0.00 | 0.00 | 0.00 | 50 | 1008.1 |
| 20260508205006 | 62 | 193 | 4.0 | 8.0 | 0.00 | 0.00 | 0.00 | 51 | 1008.1 |
| 20260508204514 | 62 | 228 | 5.0 | 8.0 | 0.00 | 0.00 | 0.00 | 52 | 1008.2 |
| 20260508204011 | 62 | 180 | 2.0 | 9.0 | 0.00 | 0.00 | 0.00 | 51 | 1008.2 |
| 20260508203506 | 62 | 205 | 4.0 | 13.0 | 0.00 | 0.00 | 0.00 | 49 | 1008.3 |
| 20260508203024 | 62 | 233 | 4.0 | 13.0 | 0.00 | 0.00 | 0.00 | 46 | 1008.3 |
| 20260508202506 | 63 | 204 | 5.0 | 14.0 | 0.00 | 0.00 | 0.00 | 44 | 1008.2 |
| 20260508202010 | 63 | 260 | 8.0 | 14.0 | 0.00 | 0.00 | 0.00 | 43 | 1008.3 |
| 20260508201526 | 63 | 160 | 5.0 | 13.0 | 0.00 | 0.00 | 0.00 | 49 | 1008.4 |
| 20260508201008 | 63 | 290 | 6.0 | 12.0 | 0.00 | 0.00 | 0.00 | 43 | 1008.5 |
| 20260508200507 | 64 | 233 | 7.0 | 12.0 | 0.00 | 0.00 | 0.00 | 42 | 1008.6 |
| 20260508200028 | 63 | 188 | 6.0 | 15.0 | 0.00 | 0.00 | 0.00 | 47 | 1008.6 |
| 20260508195512 | 63 | 244 | 5.0 | 15.0 | 0.00 | 0.00 | 0.00 | 43 | 1008.7 |
| 20260508195012 | 63 | 224 | 5.0 | 15.0 | 0.00 | 0.00 | 0.00 | 43 | 1008.8 |
| 20260508194526 | 63 | 230 | 9.0 | 15.0 | 0.00 | 0.00 | 0.00 | 42 | 1009.0 |
| 20260508194009 | 63 | 38 | 3.0 | 12.0 | 0.00 | 0.00 | 0.00 | 42 | 1009.0 |
| 20260508193506 | 63 | 183 | 4.0 | 12.0 | 0.00 | 0.00 | 0.00 | 47 | 1009.1 |
| 20260508193018 | 62 | 204 | 3.0 | 13.0 | 0.00 | 0.00 | 0.00 | 43 | 1009.2 |
| 20260508192506 | 62 | 263 | 7.0 | 13.0 | 0.00 | 0.00 | 0.00 | 41 | 1009.4 |
| 20260508192009 | 62 | 227 | 6.0 | 12.0 | 0.00 | 0.00 | 0.00 | 47 | 1009.4 |
| 20260508191534 | 61 | 180 | 3.0 | 10.0 | 0.00 | 0.00 | 0.00 | 46 | 1009.4 |
| 20260508191006 | 61 | 238 | 5.0 | 14.0 | 0.00 | 0.00 | 0.00 | 45 | 1009.6 |
| 20260508190508 | 62 | 194 | 4.0 | 14.0 | 0.00 | 0.00 | 0.00 | 45 | 1009.6 |
| 20260508190031 | 63 | 232 | 2.0 | 13.0 | 0.00 | 0.00 | 0.00 | 45 | 1009.7 |
| 20260508185506 | 63 | 223 | 6.0 | 13.0 | 0.00 | 0.00 | 0.00 | 44 | 1009.7 |
| 20260508185009 | 62 | 198 | 3.0 | 10.0 | 0.00 | 0.00 | 0.00 | 46 | 1009.7 |
| 20260508184526 | 62 | 209 | 5.0 | 12.0 | 0.00 | 0.00 | 0.00 | 43 | 1009.8 |
| 20260508184009 | 62 | 245 | 2.0 | 14.0 | 0.00 | 0.00 | 0.00 | 45 | 1009.9 |
| 20260508183513 | 62 | 225 | 3.0 | 14.0 | 0.00 | 0.00 | 0.00 | 42 | 1010.0 |
| 20260508183033 | 62 | 260 | 5.0 | 12.0 | 0.00 | 0.00 | 0.00 | 46 | 1010.0 |
| 20260508182509 | 62 | 307 | 6.0 | 12.0 | 0.00 | 0.00 | 0.00 | 44 | 1010.0 |
| 20260508182007 | 62 | 233 | 5.0 | 11.0 | 0.00 | 0.00 | 0.00 | 46 | 1010.0 |
| 20260508181523 | 61 | 225 | 3.0 | 11.0 | 0.00 | 0.00 | 0.00 | 45 | 1010.2 |
| 20260508181007 | 61 | 187 | 5.0 | 12.0 | 0.00 | 0.00 | 0.00 | 48 | 1010.2 |
| 20260508180510 | 61 | 211 | 6.0 | 12.0 | 0.00 | 0.00 | 0.00 | 46 | 1010.3 |
| 20260508180026 | 61 | 275 | 4.0 | 13.0 | 0.00 | 0.00 | 0.00 | 49 | 1010.3 |
| 20260508175512 | 61 | 261 | 2.0 | 13.0 | 0.00 | 0.00 | 0.00 | 45 | 1010.4 |
| 20260508175009 | 61 | 207 | 7.0 | 14.0 | 0.00 | 0.00 | 0.00 | 48 | 1010.4 |
| 20260508174528 | 61 | 235 | 5.0 | 14.0 | 0.00 | 0.00 | 0.00 | 44 | 1010.5 |
| 20260508174011 | 61 | 189 | 5.0 | 12.0 | 0.00 | 0.00 | 0.00 | 49 | 1010.5 |
| 20260508173510 | 61 | 232 | 3.0 | 11.0 | 0.00 | 0.00 | 0.00 | 52 | 1010.7 |
| 20260508173030 | 61 | 257 | 4.0 | 11.0 | 0.00 | 0.00 | 0.00 | 48 | 1010.8 |
| 20260508172511 | 61 | 183 | 7.0 | 13.0 | 0.00 | 0.00 | 0.00 | 49 | 1010.9 |
| 20260508172013 | 60 | 162 | 3.0 | 13.0 | 0.00 | 0.00 | 0.00 | 49 | 1010.8 |
| 20260508171535 | 59 | 201 | 4.0 | 11.0 | 0.00 | 0.00 | 0.00 | 51 | 1010.9 |
| 20260508171025 | 59 | 269 | 8.0 | 11.0 | 0.00 | 0.00 | 0.00 | 48 | 1010.9 |
| 20260508170506 | 59 | 310 | 2.0 | 9.0 | 0.00 | 0.00 | 0.00 | 51 | 1011.0 |
| 20260508170020 | 59 | 239 | 4.0 | 11.0 | 0.00 | 0.00 | 0.00 | 48 | 1011.2 |
| 20260508165507 | 59 | 290 | 6.0 | 11.0 | 0.00 | 0.00 | 0.00 | 48 | 1011.3 |
| 20260508165009 | 58 | 171 | 3.0 | 9.0 | 0.00 | 0.00 | 0.00 | 55 | 1011.2 |
| 20260508164528 | 58 | 238 | 4.0 | 12.0 | 0.00 | 0.00 | 0.00 | 51 | 1011.3 |
| 20260508164011 | 58 | 247 | 4.0 | 12.0 | 0.00 | 0.00 | 0.00 | 54 | 1011.4 |
| 20260508163510 | 58 | 220 | 3.0 | 8.0 | 0.00 | 0.00 | 0.00 | 54 | 1011.5 |
| 20260508163025 | 57 | 227 | 2.0 | 10.0 | 0.00 | 0.00 | 0.00 | 56 | 1011.6 |
| 20260508162510 | 57 | 148 | 4.0 | 10.0 | 0.00 | 0.00 | 0.00 | 56 | 1011.6 |
| 20260508162010 | 57 | 205 | 3.0 | 8.0 | 0.00 | 0.00 | 0.00 | 57 | 1011.6 |
| 20260508161532 | 58 | 230 | 3.0 | 8.0 | 0.00 | 0.00 | 0.00 | 56 | 1011.6 |
| 20260508161010 | 58 | 173 | 2.0 | 6.0 | 0.00 | 0.00 | 0.00 | 60 | 1011.6 |
| 20260508160510 | 58 | 218 | 2.0 | 7.0 | 0.00 | 0.00 | 0.00 | 60 | 1011.5 |
| 20260508160029 | 58 | 216 | 3.0 | 7.0 | 0.00 | 0.00 | 0.00 | 63 | 1011.6 |
| 20260508155503 | 57 | 250 | 1.0 | 6.0 | 0.00 | 0.00 | 0.00 | 62 | 1011.5 |
| 20260508155004 | 57 | 257 | 2.0 | 6.0 | 0.00 | 0.00 | 0.00 | 64 | 1011.6 |
| 20260508154510 | 57 | 43 | 1.0 | 5.0 | 0.00 | 0.00 | 0.00 | 63 | 1011.7 |
| 20260508154002 | 57 | 241 | 2.0 | 8.0 | 0.00 | 0.00 | 0.00 | 65 | 1011.7 |
| 20260508153502 | 57 | 95 | 2.0 | 9.0 | 0.00 | 0.00 | 0.00 | 69 | 1011.8 |
| 20260508153010 | 56 | 136 | 6.0 | 13.0 | 0.00 | 0.00 | 0.00 | 66 | 1011.8 |
| 20260508152504 | 56 | 120 | 7.0 | 13.0 | 0.00 | 0.00 | 0.00 | 68 | 1011.9 |
| 20260508152007 | 56 | 134 | 7.0 | 11.0 | 0.00 | 0.00 | 0.00 | 66 | 1012.0 |
| 20260508151518 | 56 | 144 | 2.0 | 8.0 | 0.00 | 0.00 | 0.00 | 67 | 1012.0 |
| 20260508151009 | 56 | 96 | 3.0 | 8.0 | 0.00 | 0.00 | 0.00 | 65 | 1012.0 |
| 20260508150503 | 56 | 257 | 1.0 | 6.0 | 0.00 | 0.00 | 0.00 | 64 | 1011.9 |
| 20260508150021 | 55 | 271 | 2.0 | 5.0 | 0.00 | 0.00 | 0.00 | 66 | 1012.0 |
| 20260508145507 | 55 | 137 | 0.0 | 7.0 | 0.00 | 0.00 | 0.00 | 65 | 1012.2 |
| 20260508145004 | 55 | 306 | 1.0 | 7.0 | 0.00 | 0.00 | 0.00 | 68 | 1012.2 |
| 20260508144514 | 55 | 203 | 4.0 | 6.0 | 0.00 | 0.00 | 0.00 | 68 | 1012.3 |
| 20260508144005 | 54 | 268 | 0.0 | 7.0 | 0.00 | 0.00 | 0.00 | 66 | 1012.2 |
| 20260508143502 | 54 | 257 | 4.0 | 7.0 | 0.00 | 0.00 | 0.00 | 66 | 1012.3 |
| 20260508143016 | 54 | 256 | 2.0 | 5.0 | 0.00 | 0.00 | 0.00 | 70 | 1012.3 |
| 20260508142503 | 53 | 195 | 1.0 | 5.0 | 0.00 | 0.00 | 0.00 | 71 | 1012.4 |
| 20260508142003 | 53 | 300 | 1.0 | 6.0 | 0.00 | 0.00 | 0.00 | 70 | 1012.4 |
| 20260508141512 | 53 | 300 | 3.0 | 6.0 | 0.00 | 0.00 | 0.00 | 72 | 1012.4 |
| 20260508141002 | 53 | 273 | 0.0 | 4.0 | 0.00 | 0.00 | 0.00 | 74 | 1012.4 |
| 20260508140508 | 53 | 281 | 1.0 | 5.0 | 0.00 | 0.00 | 0.00 | 73 | 1012.4 |
| 20260508140015 | 53 | 288 | 2.0 | 5.0 | 0.00 | 0.00 | 0.00 | 72 | 1012.4 |
| 20260508135507 | 53 | 10 | 3.0 | 5.0 | 0.00 | 0.00 | 0.00 | 76 | 1012.3 |
| 20260508135007 | 52 | 33 | 2.0 | 6.0 | 0.00 | 0.00 | 0.00 | 79 | 1012.4 |
| 20260508134519 | 51 | 286 | 3.0 | 6.0 | 0.00 | 0.00 | 0.00 | 81 | 1012.5 |
| 20260508134006 | 51 | 275 | 2.0 | 4.0 | 0.00 | 0.00 | 0.00 | 81 | 1012.5 |
| 20260508133503 | 50 | 313 | 2.0 | 4.0 | 0.00 | 0.00 | 0.00 | 82 | 1012.5 |
| 20260508133017 | 50 | 295 | 2.0 | 6.0 | 0.00 | 0.00 | 0.00 | 82 | 1012.6 |
| 20260508132504 | 49 | 300 | 2.0 | 6.0 | 0.00 | 0.00 | 0.00 | 82 | 1012.6 |
| 20260508132006 | 49 | 301 | 2.0 | 5.0 | 0.00 | 0.00 | 0.00 | 84 | 1012.6 |
| 20260508131516 | 49 | 253 | 1.0 | 5.0 | 0.00 | 0.00 | 0.00 | 85 | 1012.6 |
| 20260508131004 | 49 | 271 | 2.0 | 6.0 | 0.00 | 0.00 | 0.00 | 86 | 1012.6 |
| 20260508130504 | 48 | 296 | 2.0 | 6.0 | 0.00 | 0.00 | 0.00 | 86 | 1012.7 |
| 20260508130021 | 48 | 206 | 1.0 | 4.0 | 0.00 | 0.00 | 0.00 | 88 | 1012.7 |
| 20260508125506 | 47 | 240 | 2.0 | 6.0 | 0.00 | 0.00 | 0.00 | 88 | 1012.6 |
| 20260508125006 | 47 | 265 | 2.0 | 7.0 | 0.00 | 0.00 | 0.00 | 88 | 1012.4 |
| 20260508124519 | 46 | 227 | 2.0 | 7.0 | 0.00 | 0.00 | 0.00 | 89 | 1012.5 |
| 20260508124007 | 46 | 257 | 2.0 | 6.0 | 0.00 | 0.00 | 0.00 | 90 | 1012.6 |
| 20260508123509 | 45 | 261 | 1.0 | 5.0 | 0.00 | 0.00 | 0.00 | 90 | 1012.6 |
| 20260508123022 | 45 | 259 | 1.0 | 5.0 | 0.00 | 0.00 | 0.00 | 91 | 1012.6 |
| 20260508122507 | 45 | 281 | 0.0 | 5.0 | 0.00 | 0.00 | 0.00 | 91 | 1012.6 |
| 20260508122011 | 44 | 200 | 1.0 | 4.0 | 0.00 | 0.00 | 0.00 | 91 | 1012.6 |
| 20260508121519 | 44 | 234 | 1.0 | 7.0 | 0.00 | 0.00 | 0.00 | 92 | 1012.5 |
| 20260508121006 | 44 | 215 | 1.0 | 7.0 | 0.00 | 0.00 | 0.00 | 92 | 1012.4 |
| 20260508120506 | 43 | 208 | 1.0 | 5.0 | 0.00 | 0.00 | 0.00 | 92 | 1012.3 |
| 20260508120033 | 43 | 226 | 3.0 | 5.0 | 0.00 | 0.00 | 0.00 | 92 | 1012.2 |
| 20260508115504 | 43 | 265 | 1.0 | 6.0 | 0.00 | 0.00 | 0.00 | 92 | 1012.0 |
| 20260508115007 | 42 | 227 | 1.0 | 6.0 | 0.00 | 0.00 | 0.00 | 93 | 1012.0 |
| 20260508114518 | 42 | 215 | 2.0 | 4.0 | 0.00 | 0.00 | 0.00 | 93 | 1012.0 |
| 20260508114009 | 41 | 202 | 1.0 | 3.0 | 0.00 | 0.00 | 0.00 | 93 | 1011.9 |
| 20260508113508 | 40 | 346 | 0.0 | 1.0 | 0.00 | 0.00 | 0.00 | 93 | 1011.9 |
| 20260508113023 | 40 | 346 | 0.0 | 0.0 | 0.00 | 0.00 | 0.00 | 93 | 1011.9 |
| 20260508112515 | 39 | 346 | 0.0 | 0.0 | 0.00 | 0.00 | 0.00 | 93 | 1012.0 |
| 20260508112007 | 38 | 346 | 0.0 | 0.0 | 0.00 | 0.00 | 0.00 | 93 | 1012.0 |
| 20260508111528 | 37 | 346 | 0.0 | 0.0 | 0.00 | 0.00 | 0.00 | 93 | 1011.9 |
| 20260508111009 | 37 | 346 | 0.0 | 0.0 | 0.00 | 0.00 | 0.00 | 93 | 1012.0 |
| 20260508110507 | 37 | 346 | 0.0 | 0.0 | 0.00 | 0.00 | 0.00 | 93 | 1011.9 |
| 20260508110022 | 36 | 346 | 0.0 | 0.0 | 0.00 | 0.00 | 0.00 | 92 | 1011.9 |
| 20260508105507 | 36 | 346 | 0.0 | 0.0 | 0.00 | 0.00 | 0.00 | 92 | 1011.9 |
| 20260508105010 | 36 | 346 | 0.0 | 0.0 | 0.00 | 0.00 | 0.00 | 92 | 1011.8 |
| 20260508104523 | 36 | 346 | 0.0 | 0.0 | 0.00 | 0.00 | 0.00 | 92 | 1011.8 |
| 20260508104006 | 36 | 346 | 0.0 | 0.0 | 0.00 | 0.00 | 0.00 | 92 | 1011.9 |
| 20260508103506 | 36 | 346 | 0.0 | 0.0 | 0.00 | 0.00 | 0.00 | 92 | 1011.8 |
| 20260508103025 | 36 | 346 | 0.0 | 0.0 | 0.00 | 0.00 | 0.00 | 92 | 1011.8 |
| 20260508102506 | 36 | 346 | 0.0 | 0.0 | 0.00 | 0.00 | 0.00 | 92 | 1011.7 |
| 20260508102012 | 37 | 346 | 0.0 | 0.0 | 0.00 | 0.00 | 0.00 | 92 | 1011.7 |
| 20260508101526 | 36 | 346 | 0.0 | 0.0 | 0.00 | 0.00 | 0.00 | 92 | 1011.6 |
| 20260508101009 | 36 | 346 | 0.0 | 0.0 | 0.00 | 0.00 | 0.00 | 92 | 1011.6 |
| 20260508100508 | 36 | 346 | 0.0 | 0.0 | 0.00 | 0.00 | 0.00 | 92 | 1011.7 |
| 20260508100025 | 37 | 346 | 0.0 | 0.0 | 0.00 | 0.00 | 0.00 | 92 | 1011.7 |
| 20260508095506 | 37 | 346 | 0.0 | 0.0 | 0.00 | 0.00 | 0.00 | 92 | 1011.7 |
| 20260508095007 | 37 | 346 | 0.0 | 0.0 | 0.00 | 0.00 | 0.00 | 91 | 1011.7 |
| 20260508094526 | 37 | 346 | 0.0 | 0.0 | 0.00 | 0.00 | 0.00 | 91 | 1011.7 |
| 20260508094007 | 37 | 346 | 0.0 | 0.0 | 0.00 | 0.00 | 0.00 | 92 | 1011.6 |
| 20260508093507 | 37 | 346 | 0.0 | 0.0 | 0.00 | 0.00 | 0.00 | 92 | 1011.7 |
| 20260508093024 | 38 | 346 | 0.0 | 0.0 | 0.00 | 0.00 | 0.00 | 92 | 1011.7 |
| 20260508092506 | 38 | 346 | 0.0 | 0.0 | 0.00 | 0.00 | 0.00 | 92 | 1011.6 |
| 20260508092007 | 38 | 346 | 0.0 | 0.0 | 0.00 | 0.00 | 0.00 | 92 | 1011.7 |
| 20260508091523 | 38 | 346 | 0.0 | 0.0 | 0.00 | 0.00 | 0.00 | 92 | 1011.7 |
| 20260508091006 | 38 | 346 | 0.0 | 0.0 | 0.00 | 0.00 | 0.00 | 92 | 1011.7 |
| 20260508090509 | 38 | 346 | 0.0 | 0.0 | 0.00 | 0.00 | 0.00 | 91 | 1011.7 |
| 20260508090026 | 38 | 346 | 0.0 | 0.0 | 0.00 | 0.00 | 0.00 | 92 | 1011.7 |
| 20260508085510 | 38 | 346 | 0.0 | 0.0 | 0.00 | 0.00 | 0.00 | 91 | 1011.8 |
| 20260508085009 | 38 | 346 | 0.0 | 0.0 | 0.00 | 0.00 | 0.00 | 91 | 1011.8 |
| 20260508084525 | 38 | 346 | 0.0 | 0.0 | 0.00 | 0.00 | 0.00 | 91 | 1011.9 |
| 20260508084007 | 38 | 346 | 0.0 | 0.0 | 0.00 | 0.00 | 0.00 | 91 | 1011.9 |
| 20260508083508 | 38 | 346 | 0.0 | 0.0 | 0.00 | 0.00 | 0.00 | 91 | 1011.9 |
| 20260508083025 | 39 | 346 | 0.0 | 0.0 | 0.00 | 0.00 | 0.00 | 91 | 1011.9 |
| 20260508082510 | 39 | 346 | 0.0 | 0.0 | 0.00 | 0.00 | 0.00 | 91 | 1011.9 |
| 20260508082011 | 39 | 346 | 0.0 | 0.0 | 0.00 | 0.00 | 0.00 | 91 | 1012.0 |
| 20260508081532 | 39 | 346 | 0.0 | 0.0 | 0.00 | 0.00 | 0.00 | 91 | 1012.0 |
| 20260508081008 | 39 | 346 | 0.0 | 0.0 | 0.00 | 0.00 | 0.00 | 91 | 1012.0 |
| 20260508080509 | 39 | 346 | 0.0 | 0.0 | 0.00 | 0.00 | 0.00 | 90 | 1011.9 |
| 20260508080022 | 39 | 346 | 0.0 | 0.0 | 0.00 | 0.00 | 0.00 | 90 | 1011.9 |
| 20260508075510 | 40 | 346 | 0.0 | 0.0 | 0.00 | 0.00 | 0.00 | 91 | 1012.0 |
| 20260508075009 | 40 | 346 | 0.0 | 1.0 | 0.00 | 0.00 | 0.00 | 91 | 1012.0 |
| 20260508074527 | 40 | 344 | 0.0 | 2.0 | 0.00 | 0.00 | 0.00 | 91 | 1012.1 |
| 20260508074011 | 40 | 355 | 0.0 | 3.0 | 0.00 | 0.00 | 0.00 | 90 | 1012.1 |
| 20260508073511 | 40 | 348 | 0.0 | 3.0 | 0.00 | 0.00 | 0.00 | 91 | 1012.1 |
| 20260508073027 | 40 | 349 | 0.0 | 2.0 | 0.00 | 0.00 | 0.00 | 90 | 1012.1 |
| 20260508072509 | 40 | 207 | 0.0 | 1.0 | 0.00 | 0.00 | 0.00 | 89 | 1012.1 |
| 20260508072010 | 40 | 207 | 0.0 | 0.0 | 0.00 | 0.00 | 0.00 | 90 | 1012.1 |
| 20260508071526 | 40 | 207 | 0.0 | 1.0 | 0.00 | 0.00 | 0.00 | 90 | 1012.1 |
| 20260508071010 | 40 | 207 | 0.0 | 1.0 | 0.00 | 0.00 | 0.00 | 89 | 1012.1 |
| 20260508070510 | 40 | 207 | 0.0 | 0.0 | 0.00 | 0.00 | 0.00 | 89 | 1012.2 |
| 20260508070030 | 40 | 207 | 0.0 | 1.0 | 0.00 | 0.00 | 0.00 | 89 | 1012.2 |
| 20260508065504 | 40 | 207 | 0.0 | 2.0 | 0.00 | 0.00 | 0.00 | 89 | 1012.2 |
| 20260508065003 | 41 | 207 | 0.0 | 2.0 | 0.00 | 0.00 | 0.00 | 88 | 1012.2 |
| 20260508064506 | 41 | 207 | 0.0 | 0.0 | 0.00 | 0.00 | 0.00 | 88 | 1012.3 |
| 20260508064003 | 41 | 207 | 0.0 | 0.0 | 0.00 | 0.00 | 0.00 | 88 | 1012.3 |
| 20260508063504 | 41 | 207 | 0.0 | 0.0 | 0.00 | 0.00 | 0.00 | 88 | 1012.3 |
| 20260508063010 | 41 | 207 | 0.0 | 1.0 | 0.00 | 0.00 | 0.00 | 88 | 1012.3 |
| 20260508062506 | 41 | 207 | 0.0 | 1.0 | 0.00 | 0.00 | 0.00 | 87 | 1012.4 |
| 20260508062008 | 41 | 207 | 0.0 | 3.0 | 0.00 | 0.00 | 0.00 | 87 | 1012.4 |
| 20260508061512 | 42 | 207 | 0.0 | 3.0 | 0.00 | 0.00 | 0.00 | 87 | 1012.4 |
| 20260508061006 | 42 | 225 | 0.0 | 1.0 | 0.00 | 0.00 | 0.00 | 86 | 1012.4 |
| 20260508060510 | 42 | 222 | 0.0 | 2.0 | 0.00 | 0.00 | 0.00 | 86 | 1012.3 |
| 20260508060019 | 42 | 222 | 0.0 | 2.0 | 0.00 | 0.00 | 0.00 | 86 | 1012.3 |
| 20260508055502 | 42 | 206 | 0.0 | 2.0 | 0.00 | 0.00 | 0.00 | 86 | 1012.3 |
| 20260508055004 | 43 | 206 | 0.0 | 3.0 | 0.00 | 0.00 | 0.00 | 86 | 1012.4 |
| 20260508054507 | 43 | 206 | 0.0 | 3.0 | 0.00 | 0.00 | 0.00 | 86 | 1012.3 |
| 20260508054004 | 43 | 192 | 1.0 | 3.0 | 0.00 | 0.00 | 0.00 | 85 | 1012.3 |
| 20260508053503 | 43 | 186 | 0.0 | 2.0 | 0.00 | 0.00 | 0.00 | 84 | 1012.3 |
| 20260508053006 | 43 | 186 | 0.0 | 3.0 | 0.00 | 0.00 | 0.00 | 84 | 1012.3 |
| 20260508052504 | 43 | 204 | 0.0 | 3.0 | 0.00 | 0.00 | 0.00 | 84 | 1012.3 |
| 20260508052003 | 43 | 186 | 0.0 | 4.0 | 0.00 | 0.00 | 0.00 | 84 | 1012.3 |
| 20260508051525 | 43 | 192 | 0.0 | 6.0 | 0.00 | 0.00 | 0.00 | 84 | 1012.2 |
| 20260508051007 | 44 | 217 | 1.0 | 6.0 | 0.00 | 0.00 | 0.00 | 84 | 1012.3 |
| 20260508050506 | 44 | 189 | 0.0 | 5.0 | 0.00 | 0.00 | 0.00 | 83 | 1012.3 |
| 20260508050015 | 44 | 196 | 1.0 | 5.0 | 0.00 | 0.00 | 0.00 | 83 | 1012.3 |
| 20260508045507 | 44 | 170 | 1.0 | 6.0 | 0.00 | 0.00 | 0.00 | 83 | 1012.4 |
| 20260508045007 | 44 | 183 | 2.0 | 6.0 | 0.00 | 0.00 | 0.00 | 83 | 1012.4 |
| 20260508044522 | 44 | 212 | 2.0 | 6.0 | 0.00 | 0.00 | 0.00 | 83 | 1012.4 |
| 20260508044005 | 44 | 181 | 1.0 | 4.0 | 0.00 | 0.00 | 0.00 | 83 | 1012.4 |
| 20260508043503 | 43 | 178 | 0.0 | 3.0 | 0.00 | 0.00 | 0.00 | 83 | 1012.3 |
| 20260508043017 | 44 | 209 | 0.0 | 3.0 | 0.00 | 0.00 | 0.00 | 82 | 1012.2 |
| 20260508042504 | 44 | 178 | 0.0 | 3.0 | 0.00 | 0.00 | 0.00 | 82 | 1012.2 |
| 20260508042010 | 44 | 200 | 0.0 | 2.0 | 0.00 | 0.00 | 0.00 | 81 | 1012.2 |
| 20260508041514 | 44 | 200 | 0.0 | 3.0 | 0.00 | 0.00 | 0.00 | 81 | 1012.2 |
| 20260508041003 | 44 | 236 | 0.0 | 3.0 | 0.00 | 0.00 | 0.00 | 81 | 1012.1 |
| 20260508040504 | 44 | 200 | 0.0 | 2.0 | 0.00 | 0.00 | 0.00 | 80 | 1012.1 |
| 20260508040014 | 45 | 179 | 0.0 | 2.0 | 0.00 | 0.00 | 0.00 | 80 | 1012.1 |
| 20260508035512 | 45 | 179 | 0.0 | 3.0 | 0.00 | 0.00 | 0.00 | 80 | 1012.1 |
| 20260508035006 | 45 | 201 | 1.0 | 4.0 | 0.00 | 0.00 | 0.00 | 79 | 1012.1 |
| 20260508034521 | 45 | 204 | 2.0 | 6.0 | 0.00 | 0.00 | 0.00 | 79 | 1012.1 |
| 20260508034007 | 45 | 167 | 2.0 | 6.0 | 0.00 | 0.00 | 0.00 | 79 | 1012.2 |
| 20260508033506 | 45 | 199 | 1.0 | 4.0 | 0.00 | 0.00 | 0.00 | 79 | 1012.2 |
| 20260508033022 | 45 | 205 | 2.0 | 5.0 | 0.00 | 0.00 | 0.00 | 79 | 1012.2 |
| 20260508032504 | 45 | 204 | 0.0 | 5.0 | 0.00 | 0.00 | 0.00 | 79 | 1012.2 |
| 20260508032004 | 45 | 188 | 0.0 | 3.0 | 0.00 | 0.00 | 0.00 | 79 | 1012.2 |
| 20260508031507 | 45 | 190 | 1.0 | 3.0 | 0.00 | 0.00 | 0.00 | 78 | 1012.3 |
| 20260508031003 | 45 | 194 | 1.0 | 4.0 | 0.00 | 0.00 | 0.00 | 78 | 1012.2 |
| 20260508030503 | 45 | 201 | 0.0 | 4.0 | 0.00 | 0.00 | 0.00 | 78 | 1012.3 |
| 20260508030013 | 45 | 215 | 1.0 | 4.0 | 0.00 | 0.00 | 0.00 | 78 | 1012.4 |
| 20260508025507 | 46 | 205 | 0.0 | 3.0 | 0.00 | 0.00 | 0.00 | 78 | 1012.4 |
| 20260508025009 | 46 | 207 | 0.0 | 3.0 | 0.00 | 0.00 | 0.00 | 77 | 1012.4 |
| 20260508024516 | 46 | 177 | 0.0 | 2.0 | 0.00 | 0.00 | 0.00 | 76 | 1012.5 |
| 20260508024007 | 46 | 176 | 0.0 | 4.0 | 0.00 | 0.00 | 0.00 | 76 | 1012.4 |
| 20260508023507 | 47 | 198 | 0.0 | 4.0 | 0.00 | 0.00 | 0.00 | 76 | 1012.5 |
| 20260508023026 | 47 | 217 | 1.0 | 5.0 | 0.00 | 0.00 | 0.00 | 75 | 1012.4 |
| 20260508022509 | 47 | 227 | 0.0 | 5.0 | 0.00 | 0.00 | 0.00 | 75 | 1012.4 |
| 20260508022009 | 47 | 215 | 1.0 | 5.0 | 0.00 | 0.00 | 0.00 | 75 | 1012.3 |
| 20260508021527 | 47 | 184 | 0.0 | 8.0 | 0.00 | 0.00 | 0.00 | 74 | 1012.4 |
| 20260508021004 | 48 | 221 | 3.0 | 9.0 | 0.00 | 0.00 | 0.00 | 74 | 1012.4 |
| 20260508020502 | 48 | 223 | 4.0 | 10.0 | 0.00 | 0.00 | 0.00 | 73 | 1012.4 |
| 20260508020013 | 48 | 216 | 3.0 | 12.0 | 0.00 | 0.00 | 0.00 | 73 | 1012.4 |
| 20260508015502 | 48 | 214 | 4.0 | 12.0 | 0.00 | 0.00 | 0.00 | 72 | 1012.4 |
| 20260508015006 | 48 | 246 | 4.0 | 10.0 | 0.00 | 0.00 | 0.00 | 72 | 1012.5 |
| 20260508014515 | 48 | 210 | 4.0 | 14.0 | 0.00 | 0.00 | 0.00 | 72 | 1012.4 |
| 20260508014009 | 48 | 252 | 3.0 | 14.0 | 0.00 | 0.00 | 0.00 | 72 | 1012.3 |
| 20260508013511 | 48 | 166 | 3.0 | 9.0 | 0.00 | 0.00 | 0.00 | 71 | 1012.3 |
| 20260508013021 | 48 | 160 | 4.0 | 9.0 | 0.00 | 0.00 | 0.00 | 71 | 1012.2 |
| 20260508012508 | 49 | 212 | 2.0 | 8.0 | 0.00 | 0.00 | 0.00 | 71 | 1012.0 |
| 20260508012010 | 49 | 256 | 2.0 | 10.0 | 0.00 | 0.00 | 0.00 | 70 | 1012.1 |
| 20260508011525 | 49 | 205 | 1.0 | 11.0 | 0.00 | 0.00 | 0.00 | 69 | 1012.1 |
| 20260508011009 | 49 | 238 | 4.0 | 15.0 | 0.00 | 0.00 | 0.00 | 69 | 1012.1 |
| 20260508010511 | 49 | 214 | 5.0 | 17.0 | 0.00 | 0.00 | 0.00 | 68 | 1012.1 |
| 20260508010032 | 49 | 263 | 7.0 | 17.0 | 0.00 | 0.00 | 0.00 | 68 | 1012.1 |
| 20260508005502 | 49 | 217 | 5.0 | 16.0 | 0.00 | 0.00 | 0.00 | 67 | 1012.0 |
| 20260508005003 | 50 | 196 | 6.0 | 12.0 | 0.00 | 0.00 | 0.00 | 66 | 1012.0 |
| 20260508004514 | 50 | 225 | 3.0 | 10.0 | 0.00 | 0.00 | 0.00 | 66 | 1012.0 |
| 20260508004008 | 50 | 247 | 2.0 | 11.0 | 0.00 | 0.00 | 0.00 | 66 | 1011.9 |
| 20260508003506 | 50 | 246 | 2.0 | 12.0 | 0.00 | 0.00 | 0.00 | 65 | 1011.9 |
| 20260508003021 | 50 | 211 | 6.0 | 12.0 | 0.00 | 0.00 | 0.00 | 64 | 1011.9 |
| 20260508002509 | 50 | 211 | 3.0 | 14.0 | 0.00 | 0.00 | 0.00 | 63 | 1011.8 |
| 20260508002008 | 50 | 212 | 4.0 | 14.0 | 0.00 | 0.00 | 0.00 | 62 | 1011.8 |
| 20260508001521 | 51 | 279 | 7.0 | 14.0 | 0.00 | 0.00 | 0.00 | 62 | 1011.8 |
| 20260508001007 | 51 | 221 | 5.0 | 14.0 | 0.00 | 0.00 | 0.00 | 60 | 1011.8 |